Wink, TX

6:51 AM CDT on March 23, 2017 (GMT -0500)
Winkler County

Weather History for KINK - May, 2013

Change the Weather History Date:

Sunday, May 5, 2013

  Actual Average Record
Temperature  
Mean Temperature 64 °F -  
Max Temperature 79 °F 85 °F 104 °F (2000)
Min Temperature 51 °F 55 °F 37 °F (1979)
Growing Degree Days 14 (Base 50)    
Moisture  
Dew Point 19 °F    
Average Humidity 18    
Maximum Humidity 29    
Minimum Humidity 11    
Precipitation  
Precipitation 0.00 in - - ()
Sea Level Pressure  
Sea Level Pressure 30.00 in    
Wind  
Wind Speed 9 mph (East)    
Max Wind Speed 16 mph    
Max Gust Speed 23 mph    
Visibility 10 miles    
Events      
Averages and records for this station are not official NWS values.
T = Trace of Precipitation, MM = Missing Value Source: NWS Daily Summary

Daily Weather History Graph

Daily Weather History Graph

Search for Another Location

Airport or City:

Trip Planner

Search our weather history database for the weather conditions in past years. The results will help you decide how hot, cold, wet, or windy it might be!

Date:

Astronomy

May. 05, 2013 Rise Set
Actual Time 7:03 AM CDT 8:36 PM CDT
Civil Twilight 6:37 AM CDT 9:02 PM CDT
Nautical Twilight 6:05 AM CDT 9:33 PM CDT
Astronomical Twilight 5:33 AM CDT 10:06 PM CDT
Moon 4:19 AM CDT (5/5) 4:51 PM CDT (5/5)
Length of Visible Light 14h 25m
Length of Day
13h 32m
Waning Crescent, 18% of the Moon is Illuminated
May 5
Waning Crescent
May 9
New
May 17
First Quarter
May 24
Full
May 31
Last Quarter

Hourly Weather History & Observations

Time (CDT) Temp. Dew Point Humidity Pressure Visibility Wind Dir Wind Speed Gust Speed Precip Events Conditions
12:53 AM 55.9 °F 16.0 °F 21% 29.94 in 10.0 mi East 5.8 mph - N/A   Clear
1:53 AM 53.1 °F 16.0 °F 23% 29.95 in 10.0 mi East 6.9 mph - N/A   Clear
2:53 AM 55.9 °F 17.1 °F 22% 29.94 in 10.0 mi ENE 9.2 mph - N/A   Clear
3:53 AM 55.9 °F 19.0 °F 24% 29.95 in 10.0 mi East 10.4 mph - N/A   Clear
4:53 AM 52.0 °F 19.9 °F 28% 29.97 in 10.0 mi ENE 8.1 mph - N/A   Clear
5:53 AM 51.1 °F 19.9 °F 29% 29.99 in 10.0 mi NE 5.8 mph - N/A   Clear
6:53 AM 51.1 °F 19.9 °F 29% 30.02 in 10.0 mi NE 5.8 mph - N/A   Clear
7:53 AM 53.1 °F 19.9 °F 27% 30.06 in 10.0 mi NE 5.8 mph - N/A   Clear
8:53 AM 57.9 °F 18.0 °F 21% 30.09 in 10.0 mi East 12.7 mph - N/A   Clear
9:53 AM 62.1 °F 15.1 °F 16% 30.09 in 10.0 mi East 12.7 mph - N/A   Clear
10:53 AM 64.9 °F 12.9 °F 13% 30.10 in 10.0 mi East 13.8 mph - N/A   Clear
11:53 AM 68.0 °F 15.1 °F 13% 30.10 in 10.0 mi East 12.7 mph 20.7 mph N/A   Clear
12:53 PM 71.6 °F 17.6 °F 13% 30.17 in 10.0 mi SE 11.5 mph 17.3 mph N/A   Clear
1:53 PM 73.9 °F 19.0 °F 13% 30.05 in 10.0 mi SE 9.2 mph 16.1 mph N/A   Clear
2:53 PM 75.0 °F 18.0 °F 12% 30.02 in 10.0 mi East 9.2 mph 21.9 mph N/A   Clear
3:53 PM 77.0 °F 19.0 °F 11% 29.98 in 10.0 mi SE 11.5 mph 20.7 mph N/A   Clear
4:53 PM 78.1 °F 19.0 °F 11% 29.96 in 10.0 mi ESE 10.4 mph 17.3 mph N/A   Clear
5:53 PM 77.0 °F 19.0 °F 11% 29.94 in 10.0 mi East 8.1 mph - N/A   Clear
6:53 PM 78.1 °F 19.0 °F 11% 29.92 in 10.0 mi ESE 16.1 mph 23.0 mph N/A   Clear
7:53 PM 75.9 °F 19.0 °F 12% 29.92 in 10.0 mi ESE 10.4 mph - N/A   Clear
8:53 PM 72.0 °F 21.0 °F 15% 29.93 in 10.0 mi ESE 6.9 mph - N/A   Clear
9:53 PM 68.0 °F 21.9 °F 17% 29.94 in 10.0 mi East 8.1 mph - N/A   Clear
10:53 PM 64.9 °F 23.0 °F 20% 29.95 in 10.0 mi East 8.1 mph - N/A   Clear
11:53 PM 64.9 °F 23.0 °F 20% 29.95 in 10.0 mi East 9.2 mph - N/A   Clear